Regional Weather Roundup
Issued by NWS Little Rock, AR

Home | Current Version | Previous Version | Graphics & Text | Print | Product List | Glossary On
Versions: 1 2 3 4 5 6 7 8 9 10 11 12 13 14 15 16 17 18 19 20 21 22 23 24 25 26 27 28 29 30 31 32 33 34 35 36 37 38 39 40 41 42 43 44 45 46 47 48 49 50
000
ASUS44 KLZK 131005
RWRLZK

WEATHER ROUNDUP FOR ARKANSAS
NATIONAL WEATHER SERVICE LITTLE ROCK AR
500 AM CDT SUN JUL 13 2014

NOTE: "FAIR" INDICATES FEW OR NO CLOUDS BELOW 12,000 FEET WITH NO
SIGNIFICANT WEATHER AND/OR OBSTRUCTIONS TO VISIBILITY.

ARZ001-003-010-029-131100-
NORTHWEST ARKANSAS

CITY           SKY/WX    TMP DP  RH WIND       PRES   REMARKS
FAYETTEVILLE   CLEAR     71  67  87 S3        30.08S
FORT SMITH     CLEAR     74  71  91 CALM      30.05R
HARRISON       CLEAR     76  66  71 S5        30.07S
BENTONVILLE    CLEAR     72  64  78 CALM      30.09R
ROGERS         CLEAR     74  66  76 S9        30.09R
SILOAM SPGS    CLEAR     72  63  73 CALM      30.09R
HIGHFILL       CLEAR     71  67  87 CALM      30.08R
$$

ARZ004-005-016-131100-
NORTH CENTRAL ARKANSAS

CITY           SKY/WX    TMP DP  RH WIND       PRES   REMARKS
BATESVILLE     CLEAR     75  72  88 SW3       30.04S
FLIPPIN        CLEAR     72  66  83 CALM      30.05S
MTN HOME       CLEAR     73  69  87 CALM      30.05R
$$

ARZ040-041-131100-
WEST CENTRAL ARKANSAS

CITY           SKY/WX    TMP DP  RH WIND       PRES   REMARKS
MENA           CLEAR     70 N/A N/A CALM      30.09S
MOUNT IDA      CLEAR     69  68  96 CALM      30.06R FOG
$$

ARZ009-017-025-026-028-131100-
NORTHEAST ARKANSAS

CITY           SKY/WX    TMP DP  RH WIND       PRES   REMARKS
CORNING        FAIR      75  75 100 SW6       30.03S FOG
JONESBORO      CLEAR     78  74  87 W6        30.03R
NEWPORT        CLEAR     77  76  96 SW3       30.04S
WALNUT RIDGE   CLEAR     77  72  83 SW6       30.03R
BLYTHEVILLE    CLEAR     75  73  93 SW6       30.03S
$$

ARZ022-023-033-042-044-131100-
CENTRAL ARKANSAS

CITY           SKY/WX    TMP DP  RH WIND       PRES   REMARKS
LITTLE ROCK    CLEAR     76  72  87 CALM      30.05R
N LITTLE ROCK    N/A     78  74  89 SW5       30.05R
JACKSONVILLE   CLEAR     73  72  98 CALM      30.04S
SEARCY         CLEAR     74  73  96 CALM      30.05R
HOT SPRINGS    CLEAR     71  69  93 CALM      30.06S
RUSSELLVILLE   CLEAR     73  71  93 CALM      30.04S
CLINTON        CLOUDY    72  72 100 CALM      30.06S FOG
$$

ARZ036-131100-
EAST ARKANSAS

CITY           SKY/WX    TMP DP  RH WIND       PRES   REMARKS
WEST MEMPHIS   CLEAR     75  74  96 CALM      30.03R
$$

ARZ050-053-066-070-073-131100-
SOUTHWEST ARKANSAS

CITY           SKY/WX    TMP DP  RH WIND       PRES   REMARKS
ARKADELPHIA    FAIR      72  72 100 CALM      30.06R FOG
CAMDEN         CLEAR     72  68  88 CALM      30.04S FOG
TEXARKANA      CLEAR     75  71  87 SW5       30.05S
EL DORADO      CLEAR     72  71  97 CALM      30.06R
DE QUEEN       CLEAR     70  70 100 CALM      30.05R FOG
$$

ARZ056-057-069-131100-
SOUTHEAST ARKANSAS

CITY           SKY/WX    TMP DP  RH WIND       PRES   REMARKS
PINE BLUFF     CLEAR     74  72  93 CALM      30.05R
MONTICELLO     CLEAR     75  72  90 CALM      30.05R

$$





USA.gov is the U.S. government's official web portal to all federal, state and local government web resources and services.